Showing default

GAOFEN-5 02, 49122

Orbit data source: Space-Track

GAOFEN-5 02, 49122 is a payload satellite owned by GWHYZ (CN) in SSO that was launched on Tue, 07 Sep 2021 UTC via a CHANG ZHENG 4C launch vehicle from the Taiyaun Space Center, China (TSC). Payload-class satellites include a variety of spacecraft equipped with specific instruments for various scientific and technological missions. These include communications satellites like Starlink; space stations such as the ISS; scientific satellites like the Hubble; Earth observation satellites from companies like Planet Labs, Umbra, and HawkEye 360; GPS; miniature CubeSats for education and research; and military/defense satellites.

Loading next visibility...
Identifier
49122, 2021-079A
Orbit
SSO
Country
Flag of CNCN / PRC
Related business
Manufacturer
SAST
Mission
Operational Civil Imaging
Bus & Motor
SAST-5000B, Unknown motor
Mass
2,700 kg wet, ~2,500 kg dry
Launch date (UTC)
2021-09-07 (5 years ago)
Launch vehicle
CHANG ZHENG 4C
Launch site
Taiyaun Space Center, China (TSC)
Object type
Payload
Rocket body
Debris
Shape & HBR
Box + 3 Pan, 4.0 m
Radar Cross Section
10.846 m², Large (>1 m²)

Expand to show TLE details & history
Last TLE update: 1 day ago

TLE from 1 day ago
0 GAOFEN-5 02
1 49122U 21079A   26172.51684949  .00000414  00000-0  10081-3 0  9993
2 49122  98.2601 246.7934 0001283  37.5966 322.5322 14.57696186254712
Epoch: 2026-06-21T12:24Z
TLE epoch observation values (Epoch: 2026-06-21T12:24:15.795Z)
Latitude
-0.00007°
Longitude
151.01161°
Altitude
702.882 km
Speed
7.505 km/s
True Right ascension
16h 27m 10s
True Declination
0° 00' 00"
Sunlit
Object was in full shadow at epoch
Visualization orbit readout
Latitude
Unknown
Longitude
Unknown
Altitude
Unknown
Speed
Unknown
Apparent Right ascension
Unknown
Apparent Declination
Unknown
Sunlit
N/A
Visualization observer readout
Local Sidereal Time
00:33:48
Azimuth
Unknown
Elevation
Unknown
Doppler factor
Unknown
Orbital elements
Apogee altitude
698.617 km
Perigee altitude
696.802 km
Semi-major axis
7,075.847 km
Eccentricity
0.00013
Inclination
98.2601°
RAAN
246.7934°
Arg. of periapsis
37.5966°
True anomaly
322.52326°
Mean anomaly
322.5322°
Eccentric anomaly
322.52773°
Mean motion
3.64649 °/min
Orbital period
98.72 mins
BSTAR
0.00010081
Loading maneuver chart data...
Computing Atmospheric mass density...
Loading historical data...
Loading historical data...
Loading historical data...
Loading historical data...
Loading historical data...
Loading historical data...
Loading historical data...
Other satellites on launch #79 in the year 2021 (2021-09-07 UTC)

Documentation

Showing up to 5 results
|